Regional Weather Roundup
Issued by NWS Charleston, SC

Current Version | Previous Version | Text Only | Print | Product List | Glossary Off
Versions: 1 2 3 4 5 6 7 8 9 10 11 12 13 14 15 16 17 18 19 20 21 22 23 24 25 26 27 28 29 30 31 32 33 34 35 36 37 38 39 40 41 42 43 44 45 46 47 48 49 50

000
ASUS42 KCHS 061012
RWRCHS

REGIONAL WEATHER ROUNDUP
NATIONAL WEATHER SERVICE CHARLESTON SC
600 AM EDT MON JUL 06 2015

NOTE: "FAIR" INDICATES FEW OR NO CLOUDS BELOW 12,000 FEET WITH NO
SIGNIFICANT WEATHER AND/OR OBSTRUCTIONS TO VISIBILITY.

NOT ALL STATIONS ARE QUALITY CONTROLLED BY THE NATIONAL
WEATHER SERVICE. USE DATA WITH CAUTION...ESPECIALLY
DEWPOINT OBSERVATIONS.

SCZ027-030-031-034>040-042>050-061100-
...SOUTHEAST SOUTH CAROLINA...

CITY           SKY/WX    TMP DP  RH WIND       PRES   REMARKS
N CHARLESTON   PTCLDY    72  69  90 SW3       30.12R
WATERFRONT PAR   N/A     75  71  87 VRB2      30.10R
MOUNT PLEASANT FAIR      72  70  94 CALM      30.12S
JOHNS ISLAND   FAIR      73  70  88 CALM      30.12S
PINOPOLIS      NOT AVBL
MONCKS CORNER  FAIR      70  68  94 CALM      30.12R FOG
SUMMERVILLE    CLOUDY    70  70 100 CALM      30.13R FOG
BEAUFORT MCAS  CLOUDY    71  69  93 SW5       30.13R
BEAUFORT ARPT  CLOUDY    72  72 100 CALM      30.12S
HILTON HEAD IS NOT AVBL
WALTERBORO     CLOUDY    70  68  94 SW3       30.13S FOG
ALLENDALE      CLOUDY    72  72 100 CALM      30.12S FOG

...SOUTHERN MIDLANDS AND PEE DEE...

CITY           SKY/WX    TMP DP  RH WIND       PRES   REMARKS
GEORGETOWN     NOT AVBL
KINGSTREE      NOT AVBL
ORANGEBURG     CLOUDY    71  69  93 W7        30.12S
BARNWELL       CLOUDY    72  72 100 SW5       30.13S FOG
AIKEN          NOT AVBL
MANNING        FAIR      70  70 100 CALM      30.11S
COLUMBIA       MOCLDY    73  70  90 SW3       30.10R
SUMTER         CLOUDY    72  69  92 SW7       30.10R
FLORENCE       CLEAR     72  70  93 S5        30.11R
MYRTLE BEACH   PTCLDY    75  70  83 SW3       30.14R
N MYRTLE BEACH PTCLDY    76  71  85 CALM      30.12R

$$

GAZ063-065-086>088-099>101-113>116-118-119-134>141-150-061100-
...SOUTHEAST GEORGIA...

CITY           SKY/WX    TMP DP  RH WIND       PRES   REMARKS
SAVANNAH ARPT  CLOUDY    71  69  93 W3        30.13S FOG
HUNTER AAF     CLOUDY    70  70 100 W5        30.11S
FORT STEWART   CLOUDY    72  69  91 SW7       30.12R
STATESBORO     NOT AVBL
SYLVANIA       CLOUDY    73  73 100 CALM      30.14R
CLAXTON        CLOUDY    72  72 100 CALM      30.13S

...CSRA...CENTRAL AND FAR SOUTHEAST GEORGIA...

CITY           SKY/WX    TMP DP  RH WIND       PRES   REMARKS
THOMSON        CLEAR     73  73 100 CALM      30.16R
AUGUSTA-BUSH   CLOUDY    72  70  93 S6        30.10F
AUGUSTA-DANIEL CLOUDY    72  69  90 CALM      30.12S
SWAINSBORO     CLOUDY   N/A N/A N/A CALM      30.13S
VIDALIA        CLOUDY    72  70  94 SW3       30.13S
EASTMAN        CLOUDY    71  71 100 CALM      30.15S
HAZLEHURST     CLOUDY    73  73 100 CALM      30.13R
ALMA           MOCLDY    70  69  97 S3        30.13S
WAYCROSS       PTCLDY    72  72 100 CALM      30.13F
JESUP          CLOUDY    72  72 100 CALM      30.14F
BAXLEY         MOCLDY    72  70  94 CALM      30.13S
BRUNSWICK      MOCLDY    68  68 100 CALM      30.14S
SAINT SIMONS   CLEAR     70  69  97 W5        30.13F

$$

SCZ027-028-034-036>038-045-046-048>050-GAZ119-141-061100-
...LAKE AND SUPPLEMENTAL COASTAL OBSERVATIONS...

STATION/POSITION TIME  TEMP    WIND        PRES    WAVE   SWELL
                       AIR SEA DIR/SP/G            HT/PER HT/PER/DIR
                 (UTC) (F)     (DEG/KT/KT) (MB)    (FT/S) (FT/S/D)
UPR LAKE MARION  NOT AVBL
WINYAH BAY       0845   74     250/  2     1019.0
LAKE MURRAY      0900   74     220/  7/  9 1018.6S
ACE BASIN NERRS  NOT AVBL
FORT PULASKI     0900   72 83  240/  5/  7 1020.5S
SAPELO ISLAND    0900   72     230/  8     1020.0S

$$

ANZ835-935-AMZ111-154-330-350-352-354-370-450-454-472-061100-
...C-MAN AND BUOY OBSERVATIONS...

STATION/POSITION TIME  TEMP    WIND        PRES    WAVE   SWELL
                       AIR SEA DIR/SP/G            HT/PER HT/PER/DIR
                 (UTC) (F)     (DEG/KT/KT) (MB)    (FT/S) (FT/S/D)
BUOY 41004       0950   80 81  230/  8/ 10 1019.5R   3/ 9   3/ 9
BUOY 41008       0950   76 79  250/ 10/ 12 1020.5S   2/ 9   2/120/ 9
FOLLY BEACH CMAN 0900   75     270/  4/  4 1019.6F
CAPERS NEARSHORE 0908   79     260/  8/ 12 1019.9R
FRIPP NEARSHORE  0900   78     240/ 14/ 16 1019.8R


STATION/POSITION TIME  TEMP    WIND        PRES    WAVE   SWELL
                       AIR SEA DIR/SP/G            HT/PER HT/PER/DIR
                 (UTC) (F)     (DEG/KT/KT) (MB)    (FT/S) (FT/S/D)
5E ST. MARYS GA  0921      77                N/A     2/ 9
FRYING PAN BUOY  0950   79 79  220/  8/ 12 1020.8R   3/ 5   2/200/ 5
BUOY 41025       0950   80 81  240/ 10/ 12 1020.7R   3/ 8   2/110/ 8
CAPE LOOKOUT NC  0900   79     210/  9/ 11 1020.2R
BUOY 41002       0950   80 80  220/ 10/ 12 1022.3S   4/ 8   3/130/ 8
BUOY 41010       0920   81 83  180/  4/  6 1020.1F
ST AUGUSTINE FL  1000   70 71     CALM     1021.4S


$$


USA.gov is the U.S. government's official web portal to all federal, state and local government web resources and services.